Marcellus, MI (49067)

12:12 PM EST on February 01, 2015 (GMT -0500)
Farming/Agriculture | Change Station
CLOSE
Current Station
Personal Weather Station
Location: Decatur, MI
Elevation: 864 ft
Nearby Weather Stations
Active Advisory: Winter Storm Warning Active Notice: Local Storm Report

Elev 864 ft 42.05 °N, 85.91 °W | Updated 31 seconds ago

Snow
Snow
24.4 °F
Feels Like 15 °F
N
9.4
Wind Variable Wind from NE
Gusts 20.1 mph

Today
High -- | Low -- °F
--% Chance of Precip.
Yesterday
High -- | Low -- °F
Precip. -- in
7:56 AM 5:57 PM
Waxing Gibbous, 95% visible
Pressure 29.95 in
Visibility 0.5 miles
Clouds Overcast 500 ft
Windchill 15 °F
Dew Point 19 °F
Humidity 80%
Rainfall 0.00 in
Snow Depth Not available.
UV 1 out of 12
Pollen .10 out of 12
Air Quality Not available.
Flu Activity Not available.
METAR KHAI 011655Z AUTO 06012G16KT 1/2SM SN OVC005 M03/M05 A2995 RMK AO2 T10341048

More Conditions Fewer Conditions

Pressure 29.95 in
Visibility 0.5 miles
Clouds Overcast 500 ft
Windchill 15 °F
Dew Point 19 °F
Humidity 80%
Rainfall 0.00 in
Snow Depth Not available.
UV 1 out of 12
Pollen .10 out of 12
Air Quality Not available.
Flu Activity Not available.
METAR KHAI 011655Z AUTO 06012G16KT 1/2SM SN OVC005 M03/M05 A2995 RMK AO2 T10341048

More Conditions Fewer Conditions

10-Day Weather Forecast

Almanac

Astronomy

Feb. 01, 2015 Rise Set
Actual Time
Civil Twilight
Nautical Twilight
Astronomical Twilight
Moon
Length of Visible Light
Length of Day
Tomorrow will be .
, % of the Moon is Illuminated

Today's Extremes

State Highs State Lows

Community

WunderPhotos

Upload Photos

1,792,394 photos uploaded!

WunderBlogs® & News

Nearby

Air Quality

  Air Quality AQ Index Pollutant
Not available.

Snow Depth

Station Depth Elevation

Earthquake Activity

City Distance Mag. Time & Date
Minimum magnitude displayed is 2.5.

Coastal Water Temperatures

Place Temperature

Nearby Weather Stations